sat.trackr.live / text

‹ back to catalog

STARLINK-35909

NORAD 66496 · 2025-263M

PAYLOAD ACTIVE UNKNOWN

§ Identity

Operator
Country
US
Launch date
2025-11-15
Launch site
AFETR
Launch vehicle
Mass (kg)
RCS (m²)

Purposes: comms

External: N2YO · Heavens-Above · Gunter

§ Orbital elements

Epoch: 2026-09-20T12:32:35.282976Z

Period
94.27 min
Inclination
43.0044°
Eccentricity
0.0002143
Mean motion
15.27590873 rev/d
Perigee alt
481.5 km
Apogee alt
484.5 km
Semi-major
6,861.2 km
B*
5.1024e-4
RAAN
330.5956°
Arg perigee
290.1511°
Mean anomaly
69.9110°
Rev number
4,869

§ Raw data

STARLINK-359091 66496U 25263M   26263.52263059  .00013810  00000+0  51024-3 0  99972 66496  43.0044 330.5956 0002143 290.1511  69.9110 15.27590873 48698

JSON: /api/v1/satellites/66496 · /tle

For live sub-satellite position, see the globe view (requires WebGL).

§ Visibility from observer

Set your observer location to see the next 7 days of passes ≥ 10°. The values pass through the URL so the page stays shareable.

No JS? Fill the form by hand. The geolocation button needs JavaScript.